Weather History for Cairns, QU

Change the Weather History Date:

Sunday, February 23, 2014

  Actual Average Record
Temperature  
Mean Temperature 80 °F -  
Max Temperature 86 °F 87 °F 91 °F (2002)
Min Temperature 74 °F 73 °F 71 °F (1999)
Cooling Degree Days 15    
Growing Degree Days 30 (Base 50)    
Moisture  
Dew Point 74 °F    
Average Humidity 83    
Maximum Humidity 100    
Minimum Humidity 58    
Precipitation  
Precipitation 0.28 in 0.58 in - ()
Sea Level Pressure  
Sea Level Pressure 29.80 in    
Wind  
Wind Speed 11 mph ()    
Max Wind Speed 21 mph    
Max Gust Speed -    
Visibility 5.9 miles    
Events Rain    
Averages and records for this station are not official NWS values.
T = Trace of Precipitation, MM = Missing Value Source: Averaged Metar Reports

Daily Weather History Graph

Daily Weather History Graph

Search for Another Location

Airport:

Trip Planner

Search our weather history database for the weather conditions in past years. The results will help you decide how hot, cold, wet, or windy it might be!

Date:

Astronomy

Feb. 23, 2014 Rise Set
Actual Time 6:14 AM AEST 6:45 PM AEST
Civil Twilight 5:52 AM AEST 7:07 PM AEST
Nautical Twilight 5:26 AM AEST 7:33 PM AEST
Astronomical Twilight 5:00 AM AEST 7:59 PM AEST
Moon No Moon Rise 1:02 PM AEST (2/23)
Length of Visible Light 13h 15m
Length of Day
12h 31m
Last Quarter, 46% of the Moon is Illuminated
Feb 23
Last Quarter
Mar 1
New
Mar 8
First Quarter
Mar 17
Full
Mar 24
Last Quarter

Hourly Weather History & Observations

Time (AEST) Temp. Heat Index Dew Point Humidity Pressure Visibility Wind Dir Wind Speed Gust Speed Precip Events Conditions
12:00 AM 77 °F - 76 °F 94% 29.81 in 3 mi South 9.2 mph - -   Overcast
12:00 AM 77.0 °F - 75.2 °F 94% 29.80 in 3.1 mi South 9.2 mph - N/A Rain Light Rain Showers
12:30 AM 77.0 °F - 75.2 °F 94% 29.80 in 3.7 mi South 12.7 mph - N/A Rain Light Rain Showers
1:00 AM 77 °F - 76 °F 95% 29.79 in - SSE 12.7 mph - -  
1:00 AM 77.0 °F - 75.2 °F 94% 29.77 in 2.5 mi SSE 12.7 mph - N/A Rain Light Rain Showers
1:30 AM 75.2 °F - 75.2 °F 100% 29.77 in 1.9 mi South 12.7 mph - N/A Rain Light Rain Showers
2:00 AM 75.2 °F - 73.4 °F 94% 29.77 in 2.5 mi South 11.5 mph - N/A Rain Light Rain Showers
2:30 AM 75.2 °F - 73.4 °F 94% 29.77 in 3.7 mi South 15.0 mph - N/A Rain Light Rain Showers
3:00 AM 75 °F - 72 °F 89% 29.77 in - South 11.5 mph - -   Overcast
3:00 AM 75.2 °F - 73.4 °F 94% 29.77 in 3.7 mi South 11.5 mph - N/A Rain Light Rain Showers
3:12 AM 75.2 °F - 73.4 °F 94% 29.77 in 1.9 mi South 9.2 mph - N/A Rain Light Rain Showers
3:35 AM 75.2 °F - 73.4 °F 94% 29.77 in 1.9 mi SSE 5.8 mph - N/A Rain Light Rain Showers
3:57 AM 77.0 °F - 71.6 °F 83% 29.77 in 6.2 mi South 10.4 mph - N/A   Mostly Cloudy
4:30 AM 77.0 °F - 71.6 °F 83% 29.77 in 6.2 mi SSW 8.1 mph - N/A   Mostly Cloudy
5:00 AM 77.0 °F - 71.6 °F 83% 29.77 in 6.2 mi South 13.8 mph - N/A   Mostly Cloudy
5:30 AM 77.0 °F - 71.6 °F 83% 29.77 in 6.2 mi South 13.8 mph - N/A   Mostly Cloudy
6:00 AM 76 °F - 73 °F 87% 29.79 in 9 mi SSE 10.4 mph - - Rain Light Rain Showers
6:00 AM 77.0 °F - 73.4 °F 89% 29.77 in 6.2 mi SSE 10.4 mph - N/A   Mostly Cloudy
6:30 AM 77.0 °F - 71.6 °F 83% 29.77 in 6.2 mi South 10.4 mph - N/A   Mostly Cloudy
7:00 AM 78 °F - 73 °F 80% 29.81 in - South 10.4 mph - -  
7:00 AM 77.0 °F - 73.4 °F 89% 29.80 in 6.2 mi South 10.4 mph - N/A   Mostly Cloudy
7:30 AM 78.8 °F - 73.4 °F 83% 29.80 in 6.2 mi South 8.1 mph - N/A   Mostly Cloudy
8:00 AM 78.8 °F - 73.4 °F 83% 29.83 in 6.2 mi South 6.9 mph - N/A   Mostly Cloudy
8:30 AM 80.6 °F 85.4 °F 73.4 °F 79% 29.83 in 6.2 mi South 9.2 mph - N/A   Scattered Clouds
9:00 AM 80 °F - 76 °F 84% 29.84 in 9 mi SSE 10.4 mph - - Rain Light Rain Showers
9:00 AM 78.8 °F - 77.0 °F 94% 29.83 in 6.2 mi SSE 10.4 mph - N/A Rain Light Rain Showers
9:30 AM 78.8 °F - 77.0 °F 94% 29.83 in 6.2 mi SSE 9.2 mph - N/A Rain Light Rain Showers
10:00 AM 81 °F - 76 °F 80% 29.86 in - SE 11.5 mph - -  
10:00 AM 80.6 °F 86.2 °F 75.2 °F 84% 29.83 in 6.2 mi SE 11.5 mph - N/A   Mostly Cloudy
10:30 AM 82.4 °F 90.9 °F 77.0 °F 84% 29.83 in 6.2 mi SSE 10.4 mph - N/A Rain Light Rain Showers
11:00 AM 82.4 °F 90.9 °F 77.0 °F 84% 29.83 in 6.2 mi SE 10.4 mph - N/A   Mostly Cloudy
11:30 AM 82.4 °F 89.5 °F 75.2 °F 79% 29.83 in 5.6 mi SSE 10.4 mph - N/A Rain Light Rain Showers
12:00 PM 82 °F - 77 °F 82% 29.83 in 12 mi SSE 15.0 mph - - Rain Light Rain Showers
12:00 PM 82.4 °F 90.9 °F 77.0 °F 84% 29.83 in 6.2 mi SSE 15.0 mph - N/A   Mostly Cloudy
12:30 PM 80.6 °F 86.2 °F 75.2 °F 84% 29.80 in 6.2 mi SSE 17.3 mph - N/A   Mostly Cloudy
1:00 PM 79 °F - 76 °F 87% 29.82 in - South 9.2 mph - -  
1:00 PM 78.8 °F - 75.2 °F 89% 29.80 in 6.2 mi South 9.2 mph - N/A Rain Light Rain Showers
1:30 PM 78.8 °F - 75.2 °F 89% 29.80 in 6.2 mi South 8.1 mph - N/A   Mostly Cloudy
1:47 PM 80.6 °F 86.2 °F 75.2 °F 84% 29.77 in 6.2 mi South 12.7 mph - N/A   Mostly Cloudy
2:00 PM 80.6 °F 86.2 °F 75.2 °F 84% 29.77 in 6.2 mi South 11.5 mph - N/A   Mostly Cloudy
2:30 PM 80.6 °F 86.2 °F 75.2 °F 84% 29.77 in 6.2 mi South 12.7 mph - N/A   Mostly Cloudy
3:00 PM 82 °F - 76 °F 76% 29.77 in 16 mi SSE 13.8 mph - -   Partly Cloudy
3:00 PM 82.4 °F 89.5 °F 75.2 °F 79% 29.77 in 6.2 mi SSE 13.8 mph - N/A   Scattered Clouds
3:30 PM 86.0 °F 95.1 °F 75.2 °F 70% 29.74 in 6.2 mi SE 17.3 mph - N/A   Partly Cloudy
4:00 PM 85 °F - 73 °F 61% 29.77 in - SE 19.6 mph - -  
4:00 PM 86.0 °F 93.4 °F 73.4 °F 66% 29.74 in 6.2 mi SE 19.6 mph - N/A   Scattered Clouds
4:30 PM 86.0 °F 93.4 °F 73.4 °F 66% 29.74 in 6.2 mi SE 20.7 mph - N/A   Scattered Clouds
5:00 PM 84.2 °F 90.9 °F 73.4 °F 70% 29.77 in 6.2 mi SSE 20.7 mph - N/A   Scattered Clouds
5:30 PM 84.2 °F 90.9 °F 73.4 °F 70% 29.77 in 6.2 mi SSE 19.6 mph - N/A   Partly Cloudy
6:00 PM 84 °F - 72 °F 58% 29.79 in - SSE 17.3 mph - -  
6:00 PM 84.2 °F 89.6 °F 71.6 °F 66% 29.77 in 6.2 mi SSE 17.3 mph - N/A   Scattered Clouds
6:30 PM 82.4 °F 87.2 °F 71.6 °F 70% 29.80 in 6.2 mi SSE 11.5 mph - N/A   Scattered Clouds
7:00 PM 82 °F - 72 °F 65% 29.82 in - SSE 11.5 mph - -  
7:00 PM 82.4 °F 87.2 °F 71.6 °F 70% 29.80 in 6.2 mi SSE 11.5 mph - N/A   Scattered Clouds
7:30 PM 80.6 °F 85.4 °F 73.4 °F 79% 29.80 in 6.2 mi South 9.2 mph - N/A   Partly Cloudy
8:00 PM 80.6 °F 85.4 °F 73.4 °F 79% 29.83 in 6.2 mi South 8.1 mph - N/A   Mostly Cloudy
8:30 PM 80.6 °F 85.4 °F 73.4 °F 79% 29.83 in 6.2 mi SSE 6.9 mph - N/A   Scattered Clouds
9:00 PM 80 °F - 74 °F 76% 29.84 in - South 6.9 mph - -  
9:00 PM 80.6 °F 85.4 °F 73.4 °F 79% 29.83 in 6.2 mi South 6.9 mph - N/A   Scattered Clouds
9:30 PM 80.6 °F 85.4 °F 73.4 °F 79% 29.83 in 6.2 mi South 10.4 mph - N/A   Mostly Cloudy
10:00 PM 80 °F - 74 °F 76% 29.86 in - South 8.1 mph - -  
10:00 PM 80.6 °F 85.4 °F 73.4 °F 79% 29.83 in 6.2 mi South 8.1 mph - N/A   Mostly Cloudy
10:30 PM 78.8 °F - 75.2 °F 89% 29.86 in 2.5 mi SSW 6.9 mph - N/A Rain Light Rain Showers
11:00 PM 77.0 °F - 75.2 °F 94% 29.86 in 6.2 mi South 9.2 mph - N/A Rain Light Rain Showers
11:18 PM 77.0 °F - 75.2 °F 94% 29.86 in 5.0 mi South 10.4 mph - N/A Rain Light Rain Showers
11:30 PM 77.0 °F - 75.2 °F 94% 29.86 in 5.6 mi South 11.5 mph - N/A Rain Light Rain Showers